FW4831 Weather Reports


time (UTC)temp
C
wind
direction
speed
KPH
gust
KPH
rain 1hr
cm
rain 24hr
cm
rain mn
cm
humidity
%
barometer
mb
20260510164302 22 195 0.0 3.2 0.00 0.00 0.00 70 1016.0
20260510163804 21 155 1.6 3.2 0.00 0.00 0.00 71 1016.0
20260510163300 21 173 1.6 3.2 0.00 0.00 0.00 72 1015.9
20260510162802 21 183 1.6 3.2 0.00 0.00 0.00 72 1016.0
20260510162305 21 110 0.0 3.2 0.00 0.00 0.00 71 1015.9
20260510161816 22 103 1.6 3.2 0.00 0.00 0.00 71 1015.9
20260510161301 22 52 1.6 4.8 0.00 0.00 0.00 69 1015.9
20260510160803 21 68 3.2 6.4 0.00 0.00 0.00 69 1015.9
20260510160300 21 73 1.6 6.4 0.00 0.00 0.00 68 1015.9
20260510155804 22 32 1.6 4.8 0.00 0.00 0.00 69 1015.9
20260510155305 22 56 3.2 4.8 0.00 0.00 0.00 70 1015.7
20260510154803 22 58 3.2 4.8 0.00 0.00 0.00 68 1015.7
20260510154302 22 83 1.6 6.4 0.00 0.00 0.00 69 1015.7
20260510153802 21 82 1.6 8.0 0.00 0.00 0.00 67 1015.6
20260510153303 21 69 3.2 8.0 0.00 0.00 0.00 69 1015.7
20260510152801 21 59 3.2 6.4 0.00 0.00 0.00 71 1015.8
20260510152307 21 69 3.2 4.8 0.00 0.00 0.00 77 1015.7
20260510151801 21 80 1.6 4.8 0.00 0.00 0.00 77 1015.7
20260510151258 20 86 0.0 4.8 0.00 0.00 0.00 80 1015.8
20260510150756 20 121 0.0 3.2 0.00 0.00 0.00 78 1015.8
20260510150256 20 169 0.0 3.2 0.00 0.00 0.00 80 1015.7
20260510145755 20 199 1.6 3.2 0.00 0.00 0.00 79 1015.8
20260510145252 20 195 1.6 3.2 0.00 0.00 0.00 80 1015.7
20260510144750 20 75 0.0 3.2 0.00 0.00 0.00 80 1015.7
20260510144248 20 92 0.0 4.8 0.00 0.00 0.00 81 1015.6
20260510143750 20 68 3.2 4.8 0.00 0.00 0.00 79 1015.6
20260510143248 20 59 0.0 3.2 0.00 0.00 0.00 82 1015.5
20260510142749 19 111 0.0 3.2 0.00 0.00 0.00 80 1015.5
20260510142240 19 90 1.6 3.2 0.00 0.00 0.00 81 1015.3
20260510141740 18 85 1.6 3.2 0.00 0.00 0.00 82 1015.3
20260510141237 18 244 0.0 3.2 0.00 0.00 0.00 82 1015.3
20260510140737 18 96 1.6 4.8 0.00 0.00 0.00 82 1015.3
20260510140236 18 48 1.6 4.8 0.00 0.00 0.00 83 1015.2
20260510135737 18 92 0.0 3.2 0.00 0.00 0.00 81 1015.2
20260510135236 18 135 1.6 3.2 0.00 0.00 0.00 81 1015.2
20260510134734 18 99 0.0 3.2 0.00 0.00 0.00 81 1015.0
20260510134232 18 188 0.0 1.6 0.00 0.00 0.00 83 1014.9
20260510133732 18 148 0.0 3.2 0.00 0.00 0.00 82 1014.7
20260510133556 18 123 0.0 3.2 0.00 0.00 0.00 82 1014.6
20260510132730 17 75 0.0 3.2 0.00 0.00 0.00 84 1014.4
20260510132230 17 63 1.6 3.2 0.00 0.00 0.00 86 1014.4
20260510131730 17 128 0.0 3.2 0.00 0.00 0.00 86 1014.5
20260510131229 16 233 0.0 3.2 0.00 0.00 0.00 87 1014.5
20260510130726 16 233 0.0 3.2 0.00 0.00 0.00 86 1014.5
20260510130226 16 224 0.0 3.2 0.00 0.00 0.00 86 1014.5
20260510125721 17 223 0.0 3.2 0.00 0.00 0.00 82 1014.3
20260510125222 17 83 1.6 3.2 0.00 0.00 0.00 79 1014.3
20260510124720 17 80 0.0 3.2 0.00 0.00 0.00 80 1014.2
20260510124220 16 96 0.0 3.2 0.00 0.00 0.00 87 1014.2
20260510123721 16 354 0.0 0.0 0.00 0.00 0.00 87 1014.1
20260510123220 16 343 0.0 0.0 0.00 0.00 0.00 86 1014.1
20260510122719 16 345 0.0 3.2 0.00 0.00 0.00 85 1014.0
20260510122223 16 345 0.0 3.2 0.00 0.00 0.00 84 1014.0
20260510121721 16 0 0.0 1.6 0.00 0.00 0.00 83 1013.8
20260510121221 16 1 0.0 0.0 0.00 0.00 0.00 83 1013.8
20260510120720 16 6 0.0 0.0 0.00 0.00 0.00 83 1013.8
20260510120546 16 23 0.0 3.2 0.00 0.00 0.00 85 1013.6
20260510115721 15 23 0.0 3.2 0.00 0.00 0.00 88 1013.6
20260510115544 15 27 0.0 1.6 0.00 0.00 0.00 89 1013.7
20260510114721 15 261 0.0 0.0 0.00 0.00 0.00 89 1013.6
20260510114544 15 261 0.0 0.0 0.00 0.00 0.00 88 1013.5
20260510113722 15 261 0.0 3.2 0.00 0.00 0.00 87 1013.8
20260510113223 15 261 0.0 3.2 0.00 0.00 0.00 85 1013.8
20260510112721 16 141 0.0 3.2 0.00 0.00 0.00 82 1013.7
20260510112222 16 353 0.0 1.6 0.00 0.00 0.00 83 1013.6
20260510111957 16 45 0.0 0.0 0.00 0.00 0.00 82 1013.5
20260510111856 16 45 0.0 0.0 0.00 0.00 0.00 84 1013.6
20260510111619 16 45 0.0 0.0 0.00 0.00 0.00 81 1013.3
20260510111238 16 45 0.0 0.0 0.00 0.00 0.00 83 1013.6
20260510105723 16 45 0.0 0.0 0.00 0.00 0.00 81 1013.3
20260510105548 15 45 0.0 0.0 0.00 0.00 0.00 83 1013.3
20260510104722 16 45 0.0 0.0 0.00 0.00 0.00 81 1013.3
20260510104220 16 63 0.0 3.2 0.00 0.00 0.00 80 1013.4
20260510103721 16 63 0.0 3.2 0.00 0.00 0.00 79 1013.3
20260510103542 16 309 0.0 3.2 0.00 0.00 0.00 79 1013.1
20260510102720 15 68 0.0 3.2 0.00 0.00 0.00 80 1013.2
20260510102223 16 68 0.0 3.2 0.00 0.00 0.00 79 1013.2
20260510101722 16 68 0.0 0.0 0.00 0.00 0.00 79 1013.3
20260510101221 15 63 0.0 3.2 0.00 0.00 0.00 81 1013.0
20260510100723 15 1 1.6 3.2 0.00 0.00 0.00 84 1013.0
20260510100220 15 55 0.0 3.2 0.00 0.00 0.00 85 1012.8
20260510100045 15 59 0.0 1.6 0.00 0.00 0.00 87 1012.9
20260510095218 15 59 0.0 3.2 0.00 0.00 0.00 88 1012.9
20260510094718 15 59 0.0 3.2 0.00 0.00 0.00 88 1012.8
20260510094218 15 266 0.0 0.0 0.00 0.00 0.00 88 1012.8
20260510093716 15 266 0.0 1.6 0.00 0.00 0.00 86 1012.8
20260510093216 15 257 0.0 1.6 0.00 0.00 0.00 84 1012.8
20260510092714 15 97 0.0 1.6 0.00 0.00 0.00 83 1012.6
20260510092214 15 82 0.0 1.6 0.00 0.00 0.00 83 1012.5
20260510091709 15 82 0.0 3.2 0.00 0.00 0.00 84 1012.5
20260510091530 15 89 0.0 3.2 0.00 0.00 0.00 84 1012.5
20260510091049 15 148 0.0 0.0 0.00 0.00 0.00 84 1012.6
20260510090202 15 148 0.0 1.6 0.00 0.00 0.00 83 1012.6
20260510085704 15 62 0.0 3.2 0.00 0.00 0.00 82 1012.7
20260510085200 15 338 0.0 3.2 0.00 0.00 0.00 83 1012.7
20260510084704 15 137 0.0 0.0 0.00 0.00 0.00 83 1012.7
20260510084203 15 104 0.0 0.0 0.00 0.00 0.00 84 1012.5
20260510083859 15 278 0.0 0.0 0.00 0.00 0.00 83 1012.4
20260510083819 15 28 0.0 0.0 0.00 0.00 0.00 84 1012.5
20260510083031 15 278 0.0 0.0 0.00 0.00 0.00 82 1012.3
20260510082201 15 274 0.0 0.0 0.00 0.00 0.00 80 1012.2
20260510081856 16 11 0.0 3.2 0.00 0.00 0.00 78 1011.9
20260510081810 15 11 0.0 3.2 0.00 0.00 0.00 79 1012.0
20260510080708 16 11 1.6 3.2 0.00 0.00 0.00 79 1011.9
20260510080203 15 24 1.6 3.2 0.00 0.00 0.00 79 1011.9
20260510075702 15 10 0.0 3.2 0.00 0.00 0.00 81 1011.8
20260510075201 15 100 0.0 3.2 0.00 0.00 0.00 82 1011.8
20260510074702 15 271 0.0 3.2 0.00 0.00 0.00 81 1011.8
20260510074202 15 275 0.0 3.2 0.00 0.00 0.00 82 1012.0
20260510073702 15 0 0.0 3.2 0.00 0.00 0.00 80 1012.0
20260510073202 15 0 0.0 3.2 0.00 0.00 0.00 83 1012.1
20260510072702 15 127 0.0 3.2 0.00 0.00 0.00 83 1012.2
20260510072203 15 172 0.0 3.2 0.00 0.00 0.00 82 1012.2
20260510071701 15 42 0.0 0.0 0.00 0.00 0.00 81 1012.2
20260510071529 15 79 0.0 0.0 0.00 0.00 0.00 81 1012.1
20260510070702 15 79 0.0 0.0 0.00 0.00 0.00 78 1012.1
20260510070531 15 79 0.0 0.0 0.00 0.00 0.00 77 1012.2
20260510065701 16 79 0.0 0.0 0.00 0.00 0.00 76 1012.2
20260510065202 15 79 0.0 0.0 0.00 0.00 0.00 76 1012.2
20260510064702 16 79 0.0 3.2 0.00 0.00 0.00 76 1012.3
20260510064202 16 103 0.0 3.2 0.00 0.00 0.00 75 1012.3
20260510063701 16 7 0.0 0.0 0.00 0.00 0.00 72 1012.2
20260510063204 16 0 0.0 0.0 0.00 0.00 0.00 71 1012.2
20260510062704 17 0 0.0 3.2 0.00 0.00 0.00 70 1012.3
20260510062202 17 0 0.0 3.2 0.00 0.00 0.00 70 1012.2
20260510061702 16 1 1.6 1.6 0.00 0.00 0.00 71 1012.2
20260510061203 16 73 0.0 0.0 0.00 0.00 0.00 74 1012.4
20260510060701 16 73 0.0 0.0 0.00 0.00 0.00 72 1012.5
20260510060203 17 73 0.0 1.6 0.00 0.00 0.00 70 1012.3
20260510055701 17 61 0.0 3.2 0.00 0.00 0.00 70 1012.4
20260510055202 17 61 0.0 3.2 0.00 0.00 0.00 68 1012.3
20260510054701 17 37 0.0 3.2 0.00 0.00 0.00 68 1012.2
20260510054202 17 4 0.0 1.6 0.00 0.00 0.00 67 1012.2
20260510053702 17 24 0.0 3.2 0.00 0.00 0.00 69 1012.1
20260510053201 17 44 1.6 3.2 0.00 0.00 0.00 67 1012.1
20260510052850 18 357 0.0 3.2 0.00 0.00 0.00 64 1012.1
20260510052806 17 14 0.0 3.2 0.00 0.00 0.00 65 1012.1
20260510051702 18 210 1.6 3.2 0.00 0.00 0.00 62 1012.2
20260510051204 19 316 0.0 3.2 0.00 0.00 0.00 59 1012.1
20260510050702 20 99 0.0 3.2 0.00 0.00 0.00 58 1012.0
20260510050553 20 257 0.0 3.2 0.00 0.00 0.00 58 1012.0
20260510045702 20 248 0.0 3.2 0.00 0.00 0.00 56 1012.0
20260510045202 20 283 0.0 4.8 0.00 0.00 0.00 56 1011.9
20260510045026 20 289 1.6 4.8 0.00 0.00 0.00 56 1011.7
20260510044203 20 276 1.6 3.2 0.00 0.00 0.00 57 1011.7
20260510043702 20 172 0.0 3.2 0.00 0.00 0.00 57 1011.6
20260510043202 20 169 0.0 4.8 0.00 0.00 0.00 57 1011.6
20260510042704 20 144 1.6 4.8 0.00 0.00 0.00 55 1011.6
20260510042202 20 210 1.6 4.8 0.00 0.00 0.00 55 1011.6
20260510041701 20 240 1.6 4.8 0.00 0.00 0.00 55 1011.5
20260510041529 20 235 0.0 4.8 0.00 0.00 0.00 55 1011.6
20260510040703 21 266 1.6 4.8 0.00 0.00 0.00 55 1011.6
20260510040200 21 247 1.6 6.4 0.00 0.00 0.00 55 1011.5
20260510035659 21 212 3.2 6.4 0.00 0.00 0.00 55 1011.6
20260510035201 21 207 0.0 8.0 0.00 0.00 0.00 54 1011.6
20260510034653 21 252 1.6 8.0 0.00 0.00 0.00 53 1011.7
20260510034153 21 224 1.6 16.1 0.00 0.00 0.00 53 1011.6
20260510033652 21 235 1.6 16.1 0.00 0.00 0.00 53 1011.5
20260510033149 21 220 1.6 4.8 0.00 0.00 0.00 53 1011.6
20260510032650 21 220 1.6 4.8 0.00 0.00 0.00 53 1011.6
20260510032144 21 235 1.6 3.2 0.00 0.00 0.00 54 1011.6
20260510032011 21 231 1.6 9.7 0.00 0.00 0.00 54 1011.6
20260510031145 21 168 3.2 9.7 0.00 0.00 0.00 54 1011.5
20260510030952 21 221 3.2 4.8 0.00 0.00 0.00 55 1011.5
20260510030138 21 206 0.0 6.4 0.00 0.00 0.00 55 1011.4
20260510025638 21 217 0.0 6.4 0.00 0.00 0.00 55 1011.5
20260510025137 21 116 0.0 0.0 0.00 0.00 0.00 57 1011.4
20260510024637 21 142 0.0 3.2 0.00 0.00 0.00 56 1011.4
20260510024135 21 188 0.0 3.2 0.00 0.00 0.00 55 1011.3
20260510023630 22 188 0.0 3.2 0.00 0.00 0.00 55 1011.1
20260510023509 21 183 0.0 1.6 0.00 0.00 0.00 56 1011.1
20260510022630 21 147 0.0 0.0 0.00 0.00 0.00 56 1011.1
20260510022129 21 147 0.0 0.0 0.00 0.00 0.00 56 1011.1
20260510021630 22 147 0.0 0.0 0.00 0.00 0.00 55 1011.0
20260510021130 22 145 0.0 3.2 0.00 0.00 0.00 55 1010.9
20260510020628 22 168 0.0 3.2 0.00 0.00 0.00 54 1010.8
20260510020128 22 109 0.0 3.2 0.00 0.00 0.00 53 1010.8
20260510015620 22 49 1.6 3.2 0.00 0.00 0.00 52 1010.6
20260510015121 22 140 0.0 3.2 0.00 0.00 0.00 52 1010.7
20260510014620 23 65 0.0 3.2 0.00 0.00 0.00 51 1010.5
20260510014118 23 85 1.6 3.2 0.00 0.00 0.00 51 1010.5
20260510013618 23 76 0.0 3.2 0.00 0.00 0.00 50 1010.4
20260510013123 23 97 0.0 3.2 0.00 0.00 0.00 50 1010.3
20260510012619 23 182 0.0 3.2 0.00 0.00 0.00 49 1010.3
20260510012119 23 111 1.6 3.2 0.00 0.00 0.00 49 1010.4
20260510011621 23 137 0.0 3.2 0.00 0.00 0.00 48 1010.2
20260510011122 23 144 0.0 3.2 0.00 0.00 0.00 48 1010.2
20260510010620 23 165 0.0 3.2 0.00 0.00 0.00 47 1010.2
20260510010121 24 203 1.6 4.8 0.00 0.00 0.00 46 1010.1
20260510005621 24 190 1.6 4.8 0.00 0.00 0.00 46 1010.1
20260510005442 24 176 0.0 4.8 0.00 0.00 0.00 44 1010.1
20260510004621 24 164 1.6 4.8 0.00 0.00 0.00 43 1009.9
20260510004121 25 147 1.6 6.4 0.00 0.00 0.00 43 1009.9
20260510003620 25 223 3.2 6.4 0.00 0.00 0.00 41 1009.8
20260510003121 25 155 1.6 3.2 0.00 0.00 0.00 41 1009.8
20260510002946 25 178 0.0 3.2 0.00 0.00 0.00 39 1009.7
20260510002119 25 172 1.6 3.2 0.00 0.00 0.00 39 1009.7
20260510001621 25 178 0.0 3.2 0.00 0.00 0.00 39 1009.5
20260510001122 26 164 0.0 3.2 0.00 0.00 0.00 38 1009.5
20260510000620 26 199 0.0 3.2 0.00 0.00 0.00 37 1009.5
20260510000121 26 159 0.0 4.8 0.00 0.00 0.00 36 1009.5
20260509235620 26 175 1.6 4.8 0.00 0.00 0.00 36 1009.4
20260509235120 26 148 0.0 6.4 0.00 0.00 0.00 35 1009.5
20260509234621 26 175 1.6 6.4 0.00 0.00 0.00 35 1009.4
20260509234321 26 214 1.6 6.4 0.00 0.00 0.00 35 1009.3
20260509234232 26 185 3.2 6.4 0.00 0.00 0.00 35 1009.4
20260509233122 27 179 1.6 3.2 0.00 0.00 0.00 35 1009.3
20260509232939 27 90 0.0 4.8 0.00 0.00 0.00 34 1009.3
20260509232448 27 171 1.6 4.8 0.00 0.00 0.00 33 1009.3
20260509231621 27 164 0.0 4.8 0.00 0.00 0.00 36 1009.3
20260509231121 27 203 1.6 4.8 0.00 0.00 0.00 33 1009.4
20260509230619 27 76 3.2 4.8 0.00 0.00 0.00 34 1009.4
20260509230121 27 179 0.0 4.8 0.00 0.00 0.00 33 1009.3
20260509225619 27 178 3.2 6.4 0.00 0.00 0.00 31 1009.2
20260509225120 27 234 1.6 6.4 0.00 0.00 0.00 32 1009.3
20260509224622 27 216 3.2 6.4 0.00 0.00 0.00 30 1009.2
20260509224445 27 169 3.2 4.8 0.00 0.00 0.00 30 1009.1
20260509223619 27 203 0.0 9.7 0.00 0.00 0.00 30 1009.0
20260509223119 27 165 3.2 9.7 0.00 0.00 0.00 30 1009.0
20260509222618 27 172 4.8 9.7 0.00 0.00 0.00 29 1008.9
20260509222121 28 161 3.2 6.4 0.00 0.00 0.00 32 1008.9
20260509221621 28 78 1.6 4.8 0.00 0.00 0.00 34 1009.0
20260509221120 27 182 1.6 6.4 0.00 0.00 0.00 35 1009.0
20260509220620 28 127 3.2 8.0 0.00 0.00 0.00 34 1009.0
20260509220120 28 210 3.2 8.0 0.00 0.00 0.00 33 1008.9
20260509220004 28 190 3.2 8.0 0.00 0.00 0.00 32 1008.9
20260509215120 27 220 1.6 8.0 0.00 0.00 0.00 32 1008.9
20260509214620 28 166 3.2 8.0 0.00 0.00 0.00 32 1008.9
20260509214120 28 133 3.2 8.0 0.00 0.00 0.00 33 1009.0
20260509213621 27 269 3.2 6.4 0.00 0.00 0.00 33 1009.0
20260509213442 28 165 3.2 6.4 0.00 0.00 0.00 31 1009.0
20260509212621 28 72 3.2 4.8 0.00 0.00 0.00 32 1009.0
20260509212120 28 193 1.6 6.4 0.00 0.00 0.00 31 1009.1
20260509211621 28 219 3.2 6.4 0.00 0.00 0.00 33 1009.2
20260509211120 28 148 0.0 4.8 0.00 0.00 0.00 32 1009.3
20260509210619 28 175 0.0 4.8 0.00 0.00 0.00 34 1009.3
20260509210121 28 128 0.0 4.8 0.00 0.00 0.00 31 1009.3
20260509205619 28 172 1.6 9.7 0.00 0.00 0.00 34 1009.3
20260509205447 28 255 3.2 9.7 0.00 0.00 0.00 33 1009.4
20260509204944 28 90 3.2 6.4 0.00 0.00 0.00 31 1009.4
20260509204121 28 168 1.6 11.3 0.00 0.00 0.00 35 1009.5
20260509203620 28 149 4.8 11.3 0.00 0.00 0.00 33 1009.4
20260509203120 28 110 3.2 6.4 0.00 0.00 0.00 32 1009.6
20260509202615 28 133 3.2 6.4 0.00 0.00 0.00 34 1009.6
20260509202436 28 358 1.6 4.8 0.00 0.00 0.00 35 1009.6
20260509201615 28 196 1.6 6.4 0.00 0.00 0.00 36 1009.6
20260509201113 28 107 1.6 6.4 0.00 0.00 0.00 33 1009.6
20260509200936 28 228 3.2 4.8 0.00 0.00 0.00 32 1009.7
20260509200113 28 219 3.2 4.8 0.00 0.00 0.00 33 1009.7
20260509195610 28 257 3.2 4.8 0.00 0.00 0.00 33 1009.8
20260509195110 28 171 1.6 4.8 0.00 0.00 0.00 32 1009.7
20260509194930 28 151 1.6 6.4 0.00 0.00 0.00 37 1009.8
20260509194107 27 102 1.6 6.4 0.00 0.00 0.00 32 1009.9
20260509193607 27 312 0.0 4.8 0.00 0.00 0.00 33 1010.0
20260509193106 27 185 1.6 6.4 0.00 0.00 0.00 32 1010.0
20260509192605 27 93 4.8 8.0 0.00 0.00 0.00 34 1010.0
20260509192104 28 76 3.2 9.7 0.00 0.00 0.00 33 1010.1
20260509191602 28 125 3.2 11.3 0.00 0.00 0.00 36 1010.0
20260509191312 28 72 6.4 11.3 0.00 0.00 0.00 36 1009.9
20260509191214 28 107 6.4 11.3 0.00 0.00 0.00 34 1010.0
20260509185602 27 185 1.6 6.4 0.00 0.00 0.00 40 1010.1
20260509185102 27 206 3.2 6.4 0.00 0.00 0.00 36 1010.1
20260509184600 27 265 4.8 6.4 0.00 0.00 0.00 40 1010.2
20260509184424 27 224 3.2 4.8 0.00 0.00 0.00 44 1010.3
20260509183908 27 158 3.2 8.0 0.00 0.00 0.00 40 1010.4
20260509183417 27 193 4.8 8.0 0.00 0.00 0.00 44 1010.4
20260509182551 27 109 4.8 6.4 0.00 0.00 0.00 39 1010.4
20260509182049 27 176 3.2 4.8 0.00 0.00 0.00 42 1010.4
20260509181549 27 310 1.6 6.4 0.00 0.00 0.00 42 1010.5
20260509181049 26 135 0.0 6.4 0.00 0.00 0.00 42 1010.6
20260509180546 27 106 1.6 6.4 0.00 0.00 0.00 50 1010.5
20260509180046 26 76 3.2 6.4 0.00 0.00 0.00 46 1010.5
20260509175545 26 134 1.6 8.0 0.00 0.00 0.00 45 1010.5
20260509175044 26 79 4.8 8.0 0.00 0.00 0.00 42 1010.5
20260509174543 26 79 3.2 4.8 0.00 0.00 0.00 43 1010.4
20260509174408 27 351 1.6 4.8 0.00 0.00 0.00 44 1010.4
20260509173543 26 214 1.6 6.4 0.00 0.00 0.00 47 1010.4
20260509173404 26 200 3.2 6.4 0.00 0.00 0.00 46 1010.4
20260509172540 26 314 3.2 6.4 0.00 0.00 0.00 49 1010.4
20260509172038 26 121 1.6 6.4 0.00 0.00 0.00 44 1010.5
20260509171538 25 85 0.0 4.8 0.00 0.00 0.00 47 1010.4
20260509171034 26 118 1.6 8.0 0.00 0.00 0.00 45 1010.5
20260509170535 26 38 3.2 8.0 0.00 0.00 0.00 49 1010.6
20260509170033 26 338 1.6 4.8 0.00 0.00 0.00 48 1010.5
20260509165529 25 82 0.0 4.8 0.00 0.00 0.00 53 1010.4
20260509165353 26 8 0.0 8.0 0.00 0.00 0.00 52 1010.4